Powrót do katalogu

TIANHUI 5B

AktywnyNaukaSSO
NORAD 58201·PAYLOAD·🇨🇳 China

Wystrzelony Oct 31, 2023 z Taiyuan Satellite Launch Center

Loading…

Następne Przeloty (najbliższe 24 godziny)

TLE

ŚwieżeSource: Space-Track

Epoka: Sep 14, 2026, 08:04 UTC

1 58201U 23168C   26257.33670883  .00000269  00000-0  35603-4 0  9994
2 58201  97.8213 263.4538 0002143  95.1791 264.9669 14.87584559155853

Śledź TIANHUI 5B w czasie rzeczywistym z AllMySat

Download on the App Store